{"data":{"norad_id":61676,"intl_designator":"2024-193R","name":"STARLINK-32309","alt_names":[],"object_type":"PAYLOAD","status":"ACTIVE","operator":null,"country":"US","launch_date":"2024-10-26","launch_site_code":"AFETR","launch_vehicle":null,"mission":null,"orbit_class":"UNKNOWN","rcs_meters":null,"size_class":null,"mass_kg":null,"dimensions":null,"purposes":["comms"],"wikipedia_slug":null,"has_3d_model":false,"image_url":null,"decayed_at":null,"tle_current":{"epoch":"2026-05-25T03:33:56.716704Z","epoch_age_seconds":65389,"freshness":"FRESH","line1":"1 61676U 24193R   26145.14857311  .00001305  00000+0  49753-4 0  9993","line2":"2 61676  53.1625  95.0966 0001336  91.3387 268.7768 15.34393664 88249","mean_motion":15.34393664,"eccentricity":0.0001336,"inclination_deg":53.1625,"raan_deg":95.0966,"arg_perigee_deg":91.3387,"mean_anomaly_deg":268.7768,"bstar":4.9753e-5,"rev_number":8824,"period_min":93.84814560861,"perigee_km":461.80813342711,"apogee_km":463.6360109712,"semimajor_km":6840.8590721992,"source":"CELESTRAK","updated_at":"2026-05-25T13:38:19.436603Z"}}}